Starlink 3240

operational
NORAD ID: 49728 Int'l Des: 2021-115 Owner: SPXS Country: US Constellation: starlink
LEOCIRCULAR

About Starlink 3240

Description loading...

Live Position

Loading 3D Globe...

Upcoming Passes

Altitude History

Altitude vs Time

uPlot chart will show altitude changes over time

Two-Line Element Set

1 49728U 21115E 25303.47199059 -.00000614 00000-0 -20480-4 0 9998
2 49728 53.2186 23.6902 0001483 77.9310 282.1848 15.08835068215737
Epoch: Oct 30, 2025 • Age: 29 hours

Current Status

Altitude 540.1 km
Velocity 7.60 km/s
Sub-Earth Point 22.45°N, 109.1°W
Launch Date Dec 2, 2021
Age 3.9 years
Type internet

Technical Details

Classification Payload
Mass 290.00 kg
Dry Mass 270.00 kg
Total Mass 290.00 kg
Length 0.20 m
Diameter 2.80 m
Span 9.00 m
Shape Box + pan
Manufacturer SPXS
Bus Type Starlink
Phase Status In Orbit
Owner/State SPXS/US

Large Constellations

Loading constellations...